TimeCST,TemperatureF,Dew PointF,Humidity,Sea Level PressureIn,VisibilityMPH,Wind Direction,Wind SpeedMPH,Gust SpeedMPH,PrecipitationIn,Events,Conditions,WindDirDegrees,DateUTC
12:53 AM,46.0,28.0,50,29.86,10.0,NNW,29.9,41.4,N/A,,Clear,340,2011-11-26 06:53:00
1:53 AM,43.0,30.0,60,29.94,10.0,NNW,26.5,38.0,N/A,,Mostly Cloudy,340,2011-11-26 07:53:00
2:53 AM,42.1,28.9,60,29.99,10.0,NNW,31.1,42.6,N/A,,Mostly Cloudy,340,2011-11-26 08:53:00
3:53 AM,41.0,28.9,62,30.04,10.0,NNW,35.7,42.6,N/A,,Overcast,330,2011-11-26 09:53:00
4:53 AM,39.0,27.0,62,30.10,10.0,NNW,35.7,47.2,N/A,,Mostly Cloudy,330,2011-11-26 10:53:00
5:53 AM,41.0,21.9,47,30.14,10.0,NW,29.9,43.7,N/A,,Overcast,320,2011-11-26 11:53:00
6:53 AM,37.9,25.0,60,30.19,10.0,NW,28.8,34.5,N/A,,Overcast,320,2011-11-26 12:53:00
7:53 AM,35.6,21.2,56,30.22,10.0,NW,31.1,38.0,N/A,,Mostly Cloudy,320,2011-11-26 13:53:00
8:53 AM,35.1,21.9,59,30.29,10.0,NW,28.8,38.0,N/A,,Partly Cloudy,320,2011-11-26 14:53:00
9:53 AM,39.0,23.0,53,30.30,10.0,NNW,33.4,42.6,N/A,,Clear,330,2011-11-26 15:53:00
10:53 AM,42.1,19.0,40,30.32,10.0,NNW,32.2,42.6,N/A,,Clear,330,2011-11-26 16:53:00
11:53 AM,45.0,12.0,26,30.32,10.0,NNW,35.7,48.3,N/A,,Clear,340,2011-11-26 17:53:00
12:53 PM,45.0,10.0,24,30.33,10.0,NNW,40.3,52.9,N/A,,Clear,340,2011-11-26 18:53:00
1:53 PM,45.0,10.9,25,30.33,10.0,NNW,38.0,49.5,N/A,,Clear,340,2011-11-26 19:53:00
2:53 PM,44.1,12.9,28,30.34,10.0,NNW,33.4,47.2,N/A,,Clear,340,2011-11-26 20:53:00
3:53 PM,43.0,14.0,31,30.37,10.0,NNW,35.7,42.6,N/A,,Clear,330,2011-11-26 21:53:00
4:53 PM,39.9,12.9,33,30.40,10.0,NNW,27.6,35.7,N/A,,Clear,330,2011-11-26 22:53:00
5:53 PM,37.4,12.2,36,30.38,10.0,NW,17.3,-,N/A,,Clear,320,2011-11-26 23:53:00
6:53 PM,32.0,12.9,45,30.47,10.0,NW,11.5,-,N/A,,Clear,320,2011-11-27 00:53:00
7:53 PM,28.9,15.1,56,30.49,10.0,NW,12.7,-,N/A,,Clear,310,2011-11-27 01:53:00
8:53 PM,28.9,15.1,56,30.49,10.0,NW,8.1,-,N/A,,Clear,310,2011-11-27 02:53:00
9:53 PM,28.9,15.1,56,30.49,10.0,WNW,9.2,-,N/A,,Clear,290,2011-11-27 03:53:00
10:53 PM,26.1,14.0,60,30.51,10.0,WNW,9.2,-,N/A,,Clear,290,2011-11-27 04:53:00
11:53 PM,25.0,12.9,60,30.51,10.0,WNW,10.4,-,N/A,,Clear,290,2011-11-27 05:53:00